[[{"header":{"parameterUnit":"m.s-1","parameterCategory":1,"la1":30.2991,"la2":30.254,"lo1":-89.0895,"lo2":-89.0444,"dy":0.0017,"dx":0.0017,"nx":28,"ny":28,"refTime":"2024-07-04T21:00:00:Z","depth":0,"parameterNumber":2,"parameterNumberName":"U-component_of_WINDS"},"data":[0,0,0,0,0,0,0,0,0,0,0,0,0,0,0,0,0,0,0,0,0,0,0,0,0,0,0,0,0,0,0,0,0,0,0,0,0,0,0,0,0,0,0,0,0,0,0,0,0,0,0,0,0,0,0,0,0,0,4.4,4.4001,0,4.4019,4.402,4.402,4.3849,4.3844,4.384,4.3835,4.386,4.3865,4.387,0,0,0,0,0,0,0,0,0,0,0,0,0,4.382,4.3824,4.4,4.4001,4.4001,4.4019,4.402,4.402,4.385,4.3844,4.3838,4.3833,4.3859,4.3865,4.3871,0,0,0,0,0,0,0,0,0,0,0,0,0,4.3875,4.3825,4.4,4.3918,4.3911,4.4019,4.402,4.402,4.3851,4.3844,4.3837,4.383,4.3857,4.3864,4.3872,4.4061,0,0,4.3895,4.3898,0,0,0,0,0,0,0,0,4.3872,4.3882,4.393,4.3924,4.3916,4.3924,4.3965,4.4034,4.3853,4.3874,4.3835,4.3827,4.3888,4.3892,4.3912,4.4063,4.4064,4.3896,4.39,4.3904,4.3906,0,0,0,0,0,0,0,4.3868,4.388,4.4008,4.3931,4.3922,4.3881,4.3881,4.3977,4.3921,4.3872,4.3859,4.3864,4.3883,4.3905,4.3911,4.4064,4.3895,4.3902,4.3907,4.391,4.4368,4.4375,0,0,0,0,0,0,4.3875,4.3878,4.4007,4.4008,4.3876,4.389,4.389,4.3929,4.3919,4.3911,4.387,4.3856,4.3895,4.3902,4.3911,4.413,4.3904,4.3911,4.3915,4.436,4.437,4.4378,0,0,0,0,0,0,4.3872,4.3888,4.4006,4.394,4.3952,4.3901,4.3946,4.3933,4.3955,4.3918,4.3907,4.3902,4.389,4.3901,4.4024,4.4129,4.3914,4.3921,4.4351,4.4363,4.4374,4.4571,0,0,0,0,0,0,4.3867,4.3888,4.3959,4.3943,4.3956,4.4119,4.3952,4.3939,4.3968,4.395,4.3946,4.3938,4.3885,4.4014,4.4032,4.4135,4.3927,4.4342,4.4357,4.437,4.4555,4.4588,4.4616,0,0,0,0,0,4.3861,4.4016,4.3964,4.398,4.4043,4.4125,4.4133,4.4067,4.3977,4.4048,4.4024,4.3938,4.4115,4.4028,4.4047,4.4154,4.4335,4.4352,4.4369,4.4542,4.4582,4.4615,0,0,0,0,0,0,4.4049,4.4012,4.3954,4.4108,4.412,4.4096,4.4184,4.4112,4.4152,4.4134,4.4052,4.4053,4.4189,4.4184,4.4088,4.4336,4.4209,4.4231,4.4334,4.4372,4.4402,4.4399,4.3933,0,0,0,0,0,4.4108,4.4176,4.4141,4.428,4.4289,4.4236,4.4269,4.4217,4.4228,4.4233,4.4217,4.4233,4.429,4.4331,4.4383,4.4554,4.4549,4.4637,4.4668,4.4693,4.4712,4.4799,4.4837,4.4434,4.4434,4.4433,0,0,4.4231,4.4219,4.4268,4.4317,4.4321,4.4393,4.4242,4.4326,4.4379,4.4246,4.436,4.435,4.4361,4.4509,4.4573,4.4509,4.4823,4.4714,4.4735,4.474,4.4821,4.4859,4.4893,4.4445,4.4443,4.4441,0,0,4.4491,4.449,4.4604,4.461,4.4617,4.458,4.4608,4.4594,4.458,4.4694,4.4594,4.4657,4.476,4.4771,4.479,4.5053,4.4975,4.5072,4.5231,4.5317,4.5349,4.5376,4.5468,4.5502,4.5092,4.5092,4.5093,0,4.4644,4.4748,4.4672,4.4762,4.4786,4.4666,4.4781,4.4791,4.4816,4.4836,4.4763,4.4887,4.4886,4.5033,4.5096,4.5117,4.5145,4.5072,4.535,4.5377,4.5402,4.5488,4.5523,4.5104,4.5102,4.5101,4.51,0,4.4934,4.5008,4.5099,4.5122,4.5156,4.5259,4.5199,4.5243,4.5188,4.5159,4.5275,4.5269,4.5316,4.5348,4.5296,4.5487,4.5446,4.5364,4.5234,4.5453,4.5533,4.5565,4.512,4.5116,4.5113,4.511,0,0,4.5314,4.5291,4.5326,4.5334,4.5331,4.5387,4.5484,4.5527,4.5566,4.5587,4.5665,4.5753,4.5675,4.5697,4.5645,4.5721,4.5926,4.5628,4.5627,4.5682,4.6134,4.6195,4.6234,4.5875,4.5881,4.5885,4.6132,0,4.5565,4.5726,4.566,4.5827,4.5893,4.578,4.5863,4.5871,4.5847,4.59,4.5873,4.5936,4.5829,4.5841,4.5911,4.5886,4.6015,4.5868,4.5946,4.595,4.5945,4.6276,4.6342,4.6575,4.6163,4.6168,4.6172,0,4.5881,4.5911,4.6084,4.6067,4.6092,4.6168,4.6201,4.6254,4.626,4.6237,4.626,4.6191,4.6284,4.6156,4.6282,4.6184,4.6212,4.6204,4.6212,4.6215,4.6073,4.6287,4.6647,4.6682,4.622,4.6217,4.6213,0,4.6137,4.6222,4.6335,4.6346,4.6329,4.6385,4.6381,4.638,4.641,4.644,4.6457,4.6499,4.6522,4.6556,4.65,4.6412,4.6634,4.6502,4.6617,4.6618,4.6668,4.6665,4.7036,4.6689,4.6689,4.6688,4.6688,0,4.6424,4.6534,4.6449,4.652,4.6639,4.6562,4.6683,4.6666,4.6666,4.6731,4.6637,4.67,4.6622,4.6678,4.6635,4.6745,4.6757,4.674,4.6727,4.6748,4.675,4.6764,4.6746,4.6697,4.6695,4.6694,4.6692,0,4.6731,4.6679,4.6794,4.6768,4.6764,4.6853,4.6831,4.6895,4.6862,4.6946,4.6961,4.6911,4.6972,4.6919,4.6978,4.6949,4.7095,4.706,4.7092,4.7082,4.7199,4.7188,4.759,4.7638,4.7263,4.7267,4.727,0,4.6916,4.6998,4.6979,4.7015,4.7016,4.7075,4.7103,4.7031,4.7065,4.7077,4.7139,4.7191,4.7228,4.7331,4.7301,4.7345,4.7309,4.7447,4.7315,4.7332,4.7308,4.7303,4.731,4.7473,4.7478,4.7482,4.7485,0,4.7251,4.722,4.7264,4.7299,4.7335,4.736,4.7377,4.7412,4.7337,4.7381,4.744,4.7469,4.7527,4.758,4.7614,4.761,4.7536,4.7526,4.7555,4.7576,4.759,4.7581,4.7163,4.7517,4.7514,4.7511,4.751,4.7508,4.75,4.7566,4.7562,4.7614,4.7619,4.7637,4.7694,4.7668,4.7715,4.7756,4.7711,4.7783,4.7785,4.7823,4.7828,4.7884,4.7826,4.7868,4.7878,4.7889,4.7905,4.7583,4.789,4.7889,4.7888,4.7887,4.7887,0,4.7827,4.7819,4.7867,4.7892,4.7933,4.7857,4.7872,4.7911,4.7975,4.7982,4.802,4.8088,4.8137,4.8111,4.8154,4.8203,4.817,4.8217,4.8212,4.8212,4.7955,4.7925,4.8243,4.8243,4.8243,4.8243,4.8243,4.8243,4.8002,4.8108,4.8077,4.8185,4.8175,4.8243,4.8258,4.8274,4.8279,4.8357,4.8397,4.8379,4.8372,4.8414,4.8456,4.8447,4.8466,4.8526,4.8504,4.8265,4.823,4.8197,4.8168,4.8531,4.8531,4.8755,4.8757,4.8759]},{"header":{"parameterUnit":"m.s-1","parameterCategory":1,"la1":30.2991,"la2":30.254,"lo1":-89.0895,"lo2":-89.0444,"dy":0.0017,"dx":0.0017,"nx":28,"ny":28,"refTime":"2024-07-04T21:00:00:Z","depth":0,"parameterNumber":3,"parameterNumberName":"V-component_of_WINDS"},"data":[0,0,0,0,0,0,0,0,0,0,0,0,0,0,0,0,0,0,0,0,0,0,0,0,0,0,0,0,0,0,0,0,0,0,0,0,0,0,0,0,0,0,0,0,0,0,0,0,0,0,0,0,0,0,0,0,0,0,4.5644,4.5645,0,4.5781,4.5783,4.5784,4.5771,4.5769,4.5767,4.5765,4.5901,4.5907,4.5912,0,0,0,0,0,0,0,0,0,0,0,0,0,4.5365,4.537,4.5644,4.5645,4.5647,4.5781,4.5783,4.5785,4.5772,4.5769,4.5767,4.5764,4.5899,4.5906,4.5913,0,0,0,0,0,0,0,0,0,0,0,0,0,4.5492,4.5372,4.5643,4.5657,4.566,4.578,4.5783,4.5785,4.5772,4.5769,4.5766,4.5763,4.5897,4.5905,4.5914,4.6028,0,0,4.5939,4.5943,0,0,0,0,0,0,0,0,4.5485,4.5503,4.5653,4.5656,4.5659,4.5756,4.5734,4.5866,4.5773,4.5729,4.5765,4.5761,4.5855,4.5867,4.5899,4.6035,4.6041,4.594,4.5945,4.5949,4.5951,0,0,0,0,0,0,0,4.5476,4.5497,4.5698,4.5655,4.5659,4.5654,4.5669,4.5759,4.5808,4.5733,4.5732,4.5749,4.5856,4.5891,4.5902,4.6043,4.594,4.5947,4.5952,4.5956,4.6276,4.6279,0,0,0,0,0,0,4.5465,4.5489,4.5694,4.5702,4.5563,4.5662,4.5678,4.5728,4.5807,4.5816,4.5752,4.5748,4.5878,4.5893,4.5907,4.6045,4.5948,4.5956,4.5961,4.6272,4.6277,4.628,0,0,0,0,0,0,4.5459,4.5483,4.5688,4.5596,4.5621,4.567,4.5726,4.5732,4.5768,4.5821,4.5829,4.5779,4.5877,4.5895,4.5998,4.6049,4.596,4.5968,4.6268,4.6274,4.6278,4.6322,0,0,0,0,0,0,4.5451,4.5481,4.5527,4.5597,4.5626,4.5779,4.5729,4.5737,4.5783,4.5779,4.5849,4.5857,4.5876,4.5986,4.6006,4.6059,4.5974,4.6264,4.6271,4.6277,4.6316,4.6328,4.6338,0,0,0,0,0,4.5441,4.5533,4.5529,4.5554,4.5685,4.5782,4.5798,4.5819,4.5787,4.5832,4.5866,4.5855,4.6041,4.5996,4.6019,4.6076,4.6261,4.6269,4.6276,4.6311,4.6326,4.6338,0,0,0,0,0,0,4.5467,4.5543,4.5539,4.5657,4.5713,4.5779,4.5837,4.5834,4.5899,4.5893,4.5913,4.5929,4.6032,4.6064,4.6013,4.6189,4.6146,4.6159,4.6165,4.6179,4.619,4.6179,4.5981,0,0,0,0,0,4.5487,4.5561,4.5622,4.572,4.5749,4.5788,4.5831,4.5842,4.59,4.5923,4.5965,4.602,4.6091,4.6137,4.6205,4.6321,4.6334,4.6371,4.6382,4.6391,4.6401,4.6462,4.6478,4.6306,4.6306,4.6306,0,0,4.5528,4.5578,4.5624,4.5727,4.5772,4.5846,4.5808,4.5889,4.5943,4.5935,4.6034,4.6067,4.613,4.6239,4.6289,4.6269,4.6451,4.6401,4.6407,4.6413,4.6472,4.6488,4.6502,4.6311,4.631,4.631,0,0,4.564,4.5687,4.5773,4.5818,4.5886,4.5912,4.5932,4.5999,4.602,4.6121,4.6115,4.6179,4.6301,4.6345,4.6384,4.6511,4.6502,4.6533,4.659,4.6649,4.6662,4.6674,4.6717,4.6733,4.6543,4.6543,4.6543,0,4.5682,4.5796,4.5817,4.5898,4.5942,4.5939,4.6024,4.6067,4.6153,4.6183,4.616,4.6311,4.6353,4.6471,4.6502,4.6534,4.6556,4.6524,4.6659,4.6671,4.6683,4.6724,4.674,4.6546,4.6546,4.6545,4.6545,0,4.5842,4.5921,4.5981,4.6066,4.6117,4.62,4.6231,4.628,4.6286,4.6313,4.6413,4.6464,4.6541,4.657,4.6577,4.6689,4.6674,4.6655,4.6611,4.6702,4.6741,4.6757,4.655,4.6549,4.6548,4.6548,0,0,4.5975,4.6069,4.6091,4.6128,4.6203,4.6263,4.6344,4.642,4.6461,4.652,4.6587,4.6689,4.6671,4.6715,4.6726,4.6778,4.6873,4.6752,4.6754,4.6771,4.6996,4.7009,4.7027,4.6868,4.6871,4.6874,4.699,0,4.6093,4.6239,4.626,4.6388,4.6458,4.6456,4.6526,4.6578,4.6605,4.6668,4.6697,4.6768,4.6741,4.6766,4.6818,4.685,4.6918,4.6842,4.6928,4.6931,4.6911,4.7048,4.7062,4.717,4.7006,4.7009,4.701,0,4.6251,4.6315,4.645,4.6513,4.6543,4.6606,4.6677,4.6738,4.6795,4.6811,4.6859,4.6863,4.6945,4.6899,4.701,4.6958,4.6994,4.7015,4.702,4.7027,4.6975,4.7057,4.7205,4.7221,4.7035,4.7033,4.7031,0,4.6331,4.6451,4.6547,4.6579,4.6655,4.6699,4.6733,4.6788,4.6831,4.6893,4.6921,4.699,4.7028,4.708,4.7102,4.7067,4.7211,4.7167,4.7224,4.7223,4.7253,4.7251,4.7407,4.7279,4.7279,4.7279,4.7279,0,4.646,4.6542,4.6584,4.6643,4.6734,4.6756,4.6845,4.6876,4.6925,4.6988,4.699,4.7048,4.7074,4.7136,4.7154,4.7241,4.7259,4.7272,4.7275,4.7271,4.7269,4.7294,4.7286,4.7283,4.7282,4.7281,4.7281,0,4.6564,4.6596,4.67,4.6764,4.6781,4.6845,4.6899,4.6954,4.698,4.706,4.708,4.712,4.7193,4.722,4.7309,4.732,4.7421,4.742,4.7402,4.7403,4.7457,4.7451,4.7633,4.7657,4.7516,4.7517,4.7518,0,4.6644,4.6707,4.6777,4.682,4.6855,4.6925,4.6969,4.6993,4.7039,4.7108,4.7155,4.7228,4.7287,4.7403,4.7439,4.7506,4.7505,4.7564,4.7515,4.7508,4.7503,4.7498,4.7503,4.7573,4.7574,4.7575,4.7576,0,4.678,4.6792,4.6858,4.6928,4.6982,4.7038,4.7093,4.7127,4.7158,4.7209,4.7285,4.7331,4.7421,4.7493,4.7561,4.7593,4.7589,4.7592,4.7608,4.7603,4.759,4.7596,4.7425,4.7587,4.7586,4.7585,4.7585,4.7584,4.6873,4.6928,4.6986,4.7058,4.7101,4.7152,4.7207,4.724,4.7303,4.738,4.7389,4.7469,4.7523,4.7615,4.765,4.7711,4.7695,4.7719,4.7724,4.773,4.7732,4.7582,4.7724,4.7723,4.7723,4.7723,4.7723,0,4.7008,4.7044,4.7111,4.7187,4.7243,4.7236,4.7295,4.7342,4.7413,4.7464,4.7523,4.7607,4.7676,4.7717,4.7786,4.7827,4.7826,4.7844,4.784,4.7847,4.7744,4.7722,4.7843,4.7843,4.7843,4.7843,4.7843,4.7843,4.7084,4.7176,4.7195,4.7308,4.7344,4.7423,4.7457,4.7503,4.7544,4.7639,4.7696,4.7723,4.777,4.7841,4.7903,4.7913,4.7937,4.7956,4.7964,4.7867,4.7854,4.7842,4.7822,4.7961,4.7961,4.8061,4.8062,4.8063]}]]